Tracking 19149 objects as of 22-Apr-2018
HD Live streaming from Space Station
objects crossing your sky now

FENGYUN 1C DEB

Track FENGYUN 1C DEB now!
10-day predictions


NORAD ID: 30245
Int'l Code: 1999-025XE
Perigee: 841.9 km
Apogee: 1,146.2 km
Inclination: 99.0 °
Period: 104.8 minutes
Semi major axis: 7365 km
RCS: 0.0424 m2 (small)
Launch date: May 10, 1999
Source: People's Republic of China (PRC)
Launch site: Taiyaun Space Center, China (TSC)

Note: This is SATELLITE DEBRIS
aabbcc
Your satellite tracking list
Your tracking list is empty




NASA's NSSDC Master Catalog

Two Line Element Set (TLE):
1 30245U 99025XE  18111.81574453  .00000119  00000-0  14576-3 0  9995
2 30245  98.9708 235.4193 0206572 107.1930  43.8301 13.73523206563349
Source of the keplerian elements: AFSPC